Simultaneous Nadir Overpasses (SNOs) Predictions

Prediction of SNOs between GOES-16 and TERRA Satellite Orbit:

Table of predicted SNOs for the next 14.0 days since TLE Epoch: 10/12/2024
Index Date Time (GOES-16) GOES-16 Lat,Lon TERRA Lat,Lon Distance(km) Time Diff (sec)
1 10/13/2024 14:38:05 -0.05, -75.22 -0.10, -74.96 29.27 80
2 10/16/2024 02:40:00 0.05, -75.23 0.00, -75.46 27.03 80
3 10/18/2024 02:24:39 0.05, -75.25 0.93, -71.12 469.05 80
4 10/18/2024 14:44:24 -0.05, -75.27 0.11, -75.92 75.05 80
5 10/20/2024 14:23:41 -0.05, -75.29 -0.81, -71.57 422.19 80
6 10/21/2024 02:46:13 0.05, -75.28 -0.21, -76.41 128.01 80
7 10/23/2024 02:25:29 0.04, -75.31 0.70, -72.05 370.72 80
8 10/23/2024 14:47:53 -0.04, -75.33 0.29, -76.85 172.69 80
9 10/25/2024 14:27:06 -0.03, -75.37 -0.61, -72.48 327.88 80
